Location: B?ogocice
(50.2413°N, 20.2361°E)
Time: 16:02:25
(UTC+00:00)

SAR-Lupe-4 - Pass Details

Date: 19 September 2024
Orbit: 476 x 483 km, 98.1° (Epoch: 03 October)

Event Time Altitude Azimuth Distance (km) Brightness Sun altitude
Rises 02:25:52 0° 14° (NNE) 2,556 7.8 -18.6°
Reaches altitude 10° 02:27:57 10° 14° (NNE) 1,669 6.8 -18.3°
Maximum altitude 02:31:32 89° 282° (WNW) 487 3.4 -17.8°
Enters shadow 02:33:06 32° 196° (SSW) 847 4.4 -17.5°
